EA1QW Weather Reports


Display with metric or nautical units.
time (UTC)temp
F
wind
direction
speed
MPH
gust
MPH
rain 1hr
in
rain 24hr
in
rain mn
in
humidity
%
barometer
mb
20260901105022 72 26 9.0 17.0 0.00 0.00 0.00 77 1020.2
20260901104514 72 45 7.0 14.0 0.00 0.00 0.00 76 1020.3
20260901104026 72 24 7.0 13.0 0.00 0.00 0.00 77 1020.3
20260901103539 72 104 8.0 13.0 0.00 0.00 0.00 77 1020.3
20260901103008 72 52 7.0 14.0 0.00 0.00 0.00 76 1020.3
20260901102538 73 28 7.0 14.0 0.00 0.00 0.00 76 1020.3
20260901102026 73 22 7.0 15.0 0.00 0.00 0.00 76 1020.2
20260901101516 73 5 8.0 14.0 0.00 0.00 0.00 74 1020.4
20260901101007 73 51 6.0 14.0 0.00 0.00 0.00 70 1020.4
20260901100516 73 42 9.0 14.0 0.00 0.00 0.00 70 1020.5
20260901100006 73 76 8.0 13.0 0.00 0.00 0.00 71 1020.4
20260901095517 73 81 5.0 10.0 0.00 0.00 0.00 72 1020.4
20260901095026 72 36 4.0 11.0 0.00 0.00 0.00 73 1020.4
20260901094517 72 107 6.0 11.0 0.00 0.00 0.00 73 1020.3
20260901094026 72 90 5.0 12.0 0.00 0.00 0.00 73 1020.2
20260901093514 72 86 9.0 12.0 0.00 0.00 0.00 74 1020.2
20260901093023 72 49 4.0 13.0 0.00 0.00 0.00 77 1020.2
20260901092515 71 39 7.0 13.0 0.00 0.00 0.00 74 1020.3
20260901092025 72 42 5.0 13.0 0.00 0.00 0.00 74 1020.3
20260901091515 72 56 8.0 13.0 0.00 0.00 0.00 74 1020.3
20260901091011 72 76 4.0 12.0 0.00 0.00 0.00 75 1020.3
20260901090514 71 77 5.0 10.0 0.00 0.00 0.00 75 1020.4
20260901090007 71 58 4.0 10.0 0.00 0.00 0.00 76 1020.4
20260901085535 70 99 6.0 10.0 0.00 0.00 0.00 77 1020.2
20260901085010 70 39 4.0 9.0 0.00 0.00 0.00 79 1020.2
20260901063025 60 49 0.0 0.0 0.00 0.00 0.00 97 1019.6
20260901062513 60 49 0.0 0.0 0.00 0.00 0.00 96 1019.5
20260901062022 60 49 0.0 0.0 0.00 0.00 0.00 96 1019.5
20260901061510 60 49 0.0 0.0 0.00 0.00 0.00 96 1019.6
20260901061014 60 49 0.0 0.0 0.00 0.00 0.00 96 1019.5
20260901060522 60 49 0.0 0.0 0.00 0.00 0.00 96 1019.5
20260901060011 60 49 0.0 0.0 0.00 0.00 0.00 96 1019.5
20260901055519 60 49 0.0 0.0 0.00 0.00 0.00 96 1019.5
20260901055008 60 49 0.0 0.0 0.00 0.00 0.00 96 1019.4
20260901054516 61 49 0.0 0.0 0.00 0.00 0.00 95 1019.4
20260901054023 61 49 0.0 0.0 0.00 0.00 0.00 95 1019.4
20260901053511 61 49 0.0 0.0 0.00 0.00 0.00 95 1019.5
20260901053020 61 49 0.0 0.0 0.00 0.00 0.00 95 1019.3
20260901052508 61 49 0.0 0.0 0.00 0.00 0.00 95 1019.3
20260901052034 61 49 0.0 0.0 0.00 0.00 0.00 95 1019.2
20260901051522 61 49 0.0 0.0 0.00 0.00 0.00 95 1019.1
20260901051010 61 49 0.0 0.0 0.00 0.00 0.00 95 1019.2
20260901050518 61 49 0.0 0.0 0.00 0.00 0.00 95 1019.2
20260901050047 61 49 0.0 0.0 0.00 0.00 0.00 95 1019.1
20260901045514 62 49 0.0 0.0 0.00 0.00 0.00 95 1019.2
20260901045022 62 49 0.0 0.0 0.00 0.00 0.00 95 1019.1
20260901044511 62 49 0.0 0.0 0.00 0.00 0.00 95 1019.2
20260901044013 62 49 0.0 0.0 0.00 0.00 0.00 95 1019.1
20260901043517 62 49 0.0 0.0 0.00 0.00 0.00 95 1019.2
20260901043046 62 49 0.0 0.0 0.00 0.00 0.00 95 1019.2
20260901042512 62 49 0.0 0.0 0.00 0.00 0.00 95 1019.2
20260901042042 62 49 0.0 0.0 0.00 0.00 0.00 94 1019.2
20260901041509 62 49 0.0 0.0 0.00 0.00 0.00 94 1019.2
20260901041016 62 49 0.0 0.0 0.00 0.00 0.00 94 1019.1
20260901040543 62 49 0.0 0.0 0.00 0.00 0.00 94 1019.1
20260901040010 62 49 0.0 0.0 0.00 0.00 0.00 94 1019.2
20260901035519 63 49 0.0 0.0 0.00 0.00 0.00 94 1019.2
20260901035026 63 49 0.0 0.0 0.00 0.00 0.00 94 1019.1
20260901034513 63 49 0.0 0.0 0.00 0.00 0.00 94 1019.2
20260901034022 63 49 0.0 0.0 0.00 0.00 0.00 93 1019.3
20260901033514 63 49 0.0 0.0 0.00 0.00 0.00 93 1019.3
20260901033021 63 49 0.0 0.0 0.00 0.00 0.00 93 1019.2
20260901032508 63 49 0.0 0.0 0.00 0.00 0.00 93 1019.3
20260901032016 63 49 0.0 0.0 0.00 0.00 0.00 93 1019.3
20260901031525 63 49 0.0 0.0 0.00 0.00 0.00 92 1019.4
20260901031013 63 49 0.0 0.0 0.00 0.00 0.00 92 1019.4
20260901030521 64 49 0.0 0.0 0.00 0.00 0.00 92 1019.5
20260901030010 64 49 0.0 0.0 0.00 0.00 0.00 92 1019.6
20260901025519 64 49 0.0 0.0 0.00 0.00 0.00 92 1019.6
20260901025024 64 49 0.0 0.0 0.00 0.00 0.00 92 1019.7
20260901024513 64 49 0.0 0.0 0.00 0.00 0.00 92 1019.6
20260901024020 64 49 0.0 0.0 0.00 0.00 0.00 92 1019.6
20260901023508 64 49 0.0 0.0 0.00 0.00 0.00 92 1019.7
20260901023036 64 49 0.0 0.0 0.00 0.00 0.00 92 1019.8
20260901022524 64 49 0.0 0.0 0.00 0.00 0.00 92 1019.7
20260901022012 65 49 0.0 0.0 0.00 0.00 0.00 91 1019.9
20260901021520 65 49 0.0 0.0 0.00 0.00 0.00 91 1020.1
20260901021009 65 49 0.0 0.0 0.00 0.00 0.00 91 1020.1
20260901020518 65 49 0.0 0.0 0.00 0.00 0.00 91 1020.1
20260901020026 65 49 0.0 0.0 0.00 0.00 0.00 90 1020.1
20260901015514 65 49 0.0 0.0 0.00 0.00 0.00 90 1020.2
20260901015042 65 49 0.0 0.0 0.00 0.00 0.00 90 1020.2
20260901014510 65 49 0.0 0.0 0.00 0.00 0.00 90 1020.2
20260901014038 65 49 0.0 0.0 0.00 0.00 0.00 89 1020.2
20260901013544 65 49 0.0 0.0 0.00 0.00 0.00 89 1020.2
20260901013011 66 49 0.0 0.0 0.00 0.00 0.00 89 1020.2
20260901012520 66 49 0.0 0.0 0.00 0.00 0.00 89 1020.1
20260901012008 66 49 0.0 0.0 0.00 0.00 0.00 89 1020.2
20260901011537 66 49 0.0 0.0 0.00 0.00 0.00 89 1020.3
20260901011025 66 49 0.0 0.0 0.00 0.00 0.00 89 1020.3
20260901010513 66 49 0.0 0.0 0.00 0.00 0.00 89 1020.4
20260901010042 66 49 0.0 1.0 0.00 0.00 0.00 89 1020.4
20260901005509 66 49 0.0 1.0 0.00 0.00 0.00 89 1020.5
20260901005014 66 49 0.0 0.0 0.00 0.00 0.00 89 1020.5
20260901004522 66 49 0.0 0.0 0.00 0.00 0.00 89 1020.5
20260901004011 66 49 0.0 0.0 0.00 0.00 0.00 89 1020.4
20260901003519 66 49 0.0 0.0 0.00 0.00 0.00 89 1020.4
20260901003008 66 49 0.0 0.0 0.00 0.00 0.00 89 1020.5
20260901002515 66 49 0.0 0.0 0.00 0.00 0.00 89 1020.6
20260901002023 67 49 0.0 1.0 0.00 0.00 0.00 89 1020.7
20260901001512 67 49 0.0 3.0 0.00 0.00 0.00 88 1020.7
20260901001041 67 49 1.0 3.0 0.00 0.00 0.00 88 1020.7
20260901000508 67 49 0.0 2.0 0.00 0.00 0.00 88 1020.8
20260901000016 67 49 1.0 2.0 0.00 0.00 0.00 88 1020.7
20260831235524 67 49 0.0 0.0 0.00 0.00 0.00 87 1020.8
20260831235012 67 49 0.0 0.0 0.00 0.00 0.00 87 1021.0
20260831234542 67 49 0.0 0.0 0.00 0.00 0.00 87 1021.0
20260831234009 67 49 0.0 1.0 0.00 0.00 0.00 87 1020.8
20260831233516 67 49 0.0 1.0 0.00 0.00 0.00 87 1020.8
20260831233024 67 49 0.0 2.0 0.00 0.00 0.00 87 1020.7
20260831232513 67 49 0.0 3.0 0.00 0.00 0.00 87 1020.8
20260831232021 67 49 1.0 4.0 0.00 0.00 0.00 87 1020.8
20260831231510 68 49 0.0 3.0 0.00 0.00 0.00 87 1020.8
20260831231013 68 49 0.0 3.0 0.00 0.00 0.00 87 1020.9
20260831230522 68 49 1.0 4.0 0.00 0.00 0.00 87 1021.0
20260831230010 68 46 2.0 4.0 0.00 0.00 0.00 87 1021.1
20260831225540 68 46 0.0 0.0 0.00 0.00 0.00 88 1021.3
20260831225007 68 46 0.0 0.0 0.00 0.00 0.00 88 1021.4
20260831224515 68 46 0.0 1.0 0.00 0.00 0.00 88 1021.4
20260831224024 68 46 0.0 4.0 0.00 0.00 0.00 87 1021.4
20260831223532 68 46 0.0 6.0 0.00 0.00 0.00 87 1021.5
20260831223020 68 46 1.0 6.0 0.00 0.00 0.00 86 1021.6
20260831222529 68 72 1.0 5.0 0.00 0.00 0.00 86 1021.5
20260831222035 68 73 2.0 4.0 0.00 0.00 0.00 86 1021.5
20260831221521 68 73 2.0 4.0 0.00 0.00 0.00 86 1021.6
20260831221007 68 73 2.0 4.0 0.00 0.00 0.00 86 1021.5
20260831220515 68 73 1.0 3.0 0.00 0.00 0.00 86 1021.5
20260831220024 68 73 0.0 2.0 0.00 0.00 0.00 85 1021.6
20260831215513 68 73 0.0 2.0 0.00 0.00 0.00 85 1021.6
20260831215013 68 73 0.0 0.0 0.00 0.00 0.00 85 1021.6
20260831214542 68 73 0.0 0.0 0.00 0.00 0.00 85 1021.5
20260831214010 68 73 0.0 1.0 0.00 0.00 0.00 85 1021.5
20260831213539 68 73 0.0 2.0 0.00 0.00 0.00 85 1021.6
20260831213046 68 73 0.0 2.0 0.00 0.00 0.00 85 1021.6
20260831212513 68 73 0.0 2.0 0.00 0.00 0.00 85 1021.6
20260831212022 68 73 0.0 2.0 0.00 0.00 0.00 85 1021.6
20260831211510 68 73 0.0 4.0 0.00 0.00 0.00 85 1021.5
20260831211015 68 73 0.0 4.0 0.00 0.00 0.00 85 1021.5
20260831210508 68 73 0.0 3.0 0.00 0.00 0.00 85 1021.6
20260831210017 68 73 1.0 3.0 0.00 0.00 0.00 85 1021.5
20260831205525 68 73 1.0 4.0 0.00 0.00 0.00 85 1021.5
20260831205013 68 73 0.0 4.0 0.00 0.00 0.00 85 1021.5
20260831204543 68 73 0.0 1.0 0.00 0.00 0.00 85 1021.5
20260831204007 68 73 0.0 3.0 0.00 0.00 0.00 85 1021.5
20260831203515 68 73 1.0 4.0 0.00 0.00 0.00 85 1021.5
20260831203021 68 73 2.0 4.0 0.00 0.00 0.00 85 1021.4
20260831202509 68 73 1.0 4.0 0.00 0.00 0.00 84 1021.4
20260831202016 68 73 1.0 4.0 0.00 0.00 0.00 84 1021.5
20260831201524 68 36 0.0 1.0 0.00 0.00 0.00 84 1021.4
20260831201033 68 36 0.0 2.0 0.00 0.00 0.00 84 1021.4
20260831200537 68 36 0.0 3.0 0.00 0.00 0.00 84 1021.4
20260831200008 69 36 0.0 3.0 0.00 0.00 0.00 83 1021.5
20260831195516 69 36 1.0 3.0 0.00 0.00 0.00 83 1021.4
20260831195025 69 36 0.0 2.0 0.00 0.00 0.00 83 1021.4
20260831194513 69 36 0.0 2.0 0.00 0.00 0.00 83 1021.4
20260831194018 69 36 0.0 3.0 0.00 0.00 0.00 83 1021.4
20260831193507 69 36 0.0 3.0 0.00 0.00 0.00 83 1021.4
20260831193014 69 36 0.0 4.0 0.00 0.00 0.00 83 1021.3
20260831192522 69 36 1.0 4.0 0.00 0.00 0.00 82 1021.4
20260831192032 69 36 1.0 4.0 0.00 0.00 0.00 82 1021.2
20260831191518 69 36 2.0 4.0 0.00 0.00 0.00 82 1021.2
20260831191007 69 36 0.0 3.0 0.00 0.00 0.00 82 1021.1
20260831190515 69 36 2.0 5.0 0.00 0.00 0.00 81 1021.1
20260831190023 69 36 3.0 5.0 0.00 0.00 0.00 81 1021.1
20260831185512 69 36 0.0 6.0 0.00 0.00 0.00 80 1021.1
20260831185019 69 36 3.0 6.0 0.00 0.00 0.00 80 1021.1
20260831184508 69 70 2.0 5.0 0.00 0.00 0.00 79 1021.0
20260831184016 69 70 2.0 5.0 0.00 0.00 0.00 79 1020.8
20260831183524 69 94 1.0 6.0 0.00 0.00 0.00 79 1020.9
20260831183013 70 60 2.0 6.0 0.00 0.00 0.00 79 1020.9
20260831182521 70 54 1.0 7.0 0.00 0.00 0.00 79 1020.9
20260831182009 70 42 3.0 7.0 0.00 0.00 0.00 79 1020.9
20260831181517 70 51 1.0 5.0 0.00 0.00 0.00 79 1020.9
20260831181025 70 49 1.0 7.0 0.00 0.00 0.00 78 1020.9
20260831180514 70 49 5.0 7.0 0.00 0.00 0.00 78 1021.0
20260831180022 70 21 3.0 8.0 0.00 0.00 0.00 78 1020.9
20260831175511 70 70 2.0 7.0 0.00 0.00 0.00 78 1021.0
20260831175019 70 78 2.0 9.0 0.00 0.00 0.00 77 1020.9
20260831174524 70 70 4.0 9.0 0.00 0.00 0.00 77 1020.8
20260831174012 70 57 4.0 10.0 0.00 0.00 0.00 77 1020.9
20260831173521 70 46 4.0 11.0 0.00 0.00 0.00 77 1020.9
20260831173010 70 35 6.0 11.0 0.00 0.00 0.00 76 1020.8
20260831172538 71 9 3.0 9.0 0.00 0.00 0.00 76 1020.8
20260831172024 71 53 2.0 9.0 0.00 0.00 0.00 76 1020.8
20260831171513 71 75 1.0 9.0 0.00 0.00 0.00 76 1020.8
20260831171019 71 49 4.0 11.0 0.00 0.00 0.00 75 1020.9
20260831170507 71 72 2.0 11.0 0.00 0.00 0.00 75 1020.9
20260831170014 71 329 1.0 10.0 0.00 0.00 0.00 75 1020.8
20260831165523 71 51 5.0 13.0 0.00 0.00 0.00 74 1020.7
20260831165032 71 17 4.0 10.0 0.00 0.00 0.00 74 1020.8
20260831164519 71 55 3.0 10.0 0.00 0.00 0.00 74 1020.8
20260831164008 71 57 4.0 10.0 0.00 0.00 0.00 73 1020.9
20260831163517 71 72 3.0 13.0 0.00 0.00 0.00 73 1020.9
20260831163025 72 5 3.0 13.0 0.00 0.00 0.00 73 1020.9
20260831162512 72 94 1.0 10.0 0.00 0.00 0.00 73 1020.9
20260831162013 71 11 3.0 10.0 0.00 0.00 0.00 73 1020.9
20260831161522 72 36 4.0 10.0 0.00 0.00 0.00 73 1021.0
20260831161010 71 18 3.0 12.0 0.00 0.00 0.00 73 1020.9
20260831160519 71 11 5.0 12.0 0.00 0.00 0.00 72 1021.0
20260831160007 72 38 5.0 11.0 0.00 0.00 0.00 73 1021.0
20260831155515 72 331 3.0 11.0 0.00 0.00 0.00 73 1021.0
20260831155024 72 5 3.0 11.0 0.00 0.00 0.00 72 1021.1
20260831154513 71 25 1.0 11.0 0.00 0.00 0.00 73 1021.2
20260831154041 71 42 6.0 11.0 0.00 0.00 0.00 73 1021.2
20260831153507 71 5 5.0 10.0 0.00 0.00 0.00 73 1021.2
20260831153015 71 22 4.0 11.0 0.00 0.00 0.00 73 1021.2
20260831152523 71 15 5.0 11.0 0.00 0.00 0.00 72 1021.3
20260831152008 71 17 5.0 9.0 0.00 0.00 0.00 73 1021.4
20260831151514 71 32 4.0 9.0 0.00 0.00 0.00 72 1021.3
20260831151022 71 17 4.0 10.0 0.00 0.00 0.00 74 1021.3
20260831150514 71 71 5.0 10.0 0.00 0.00 0.00 73 1021.4
20260831150021 72 28 5.0 10.0 0.00 0.00 0.00 72 1021.4
20260831145510 72 115 3.0 11.0 0.00 0.00 0.00 72 1021.3
20260831145017 72 355 5.0 12.0 0.00 0.00 0.00 72 1021.5
20260831144525 73 11 7.0 12.0 0.00 0.00 0.00 70 1021.5
20260831144014 73 350 4.0 11.0 0.00 0.00 0.00 70 1021.5
20260831143520 73 355 4.0 11.0 0.00 0.00 0.00 71 1021.5
20260831143008 74 346 3.0 8.0 0.00 0.00 0.00 71 1021.5
20260831142518 73 304 4.0 8.0 0.00 0.00 0.00 71 1021.5
20260831142046 73 299 5.0 9.0 0.00 0.00 0.00 73 1021.5
20260831141514 73 28 4.0 9.0 0.00 0.00 0.00 74 1021.6
20260831141022 72 284 3.0 11.0 0.00 0.00 0.00 74 1021.5
20260831140511 73 342 6.0 11.0 0.00 0.00 0.00 73 1021.5
20260831140019 73 311 4.0 12.0 0.00 0.00 0.00 72 1021.6
20260831135507 73 20 5.0 12.0 0.00 0.00 0.00 72 1021.6
20260831135016 73 285 3.0 11.0 0.00 0.00 0.00 72 1021.6
20260831134544 73 300 6.0 11.0 0.00 0.00 0.00 72 1021.7
20260831134012 73 344 4.0 11.0 0.00 0.00 0.00 71 1021.7
20260831133520 73 325 5.0 11.0 0.00 0.00 0.00 72 1021.6
20260831133009 73 284 6.0 11.0 0.00 0.00 0.00 71 1021.6
20260831132517 73 314 5.0 11.0 0.00 0.00 0.00 72 1021.6
20260831132025 73 29 4.0 12.0 0.00 0.00 0.00 71 1021.7
20260831131513 73 313 6.0 12.0 0.00 0.00 0.00 71 1021.8
20260831131022 73 13 4.0 9.0 0.00 0.00 0.00 71 1021.7
20260831130509 73 326 3.0 10.0 0.00 0.00 0.00 70 1021.7
20260831130017 73 22 4.0 10.0 0.00 0.00 0.00 70 1021.7
20260831125526 72 29 3.0 9.0 0.00 0.00 0.00 71 1021.7
20260831125013 72 11 3.0 12.0 0.00 0.00 0.00 74 1021.8
20260831124542 72 300 3.0 12.0 0.00 0.00 0.00 73 1021.8
20260831124009 73 325 4.0 10.0 0.00 0.00 0.00 72 1021.8
20260831123517 73 334 4.0 10.0 0.00 0.00 0.00 73 1021.8
20260831123025 72 328 3.0 11.0 0.00 0.00 0.00 74 1021.8
20260831122534 72 289 5.0 12.0 0.00 0.00 0.00 72 1021.9
20260831122022 73 302 7.0 11.0 0.00 0.00 0.00 71 1021.9
20260831121531 72 348 3.0 10.0 0.00 0.00 0.00 72 1022.0
20260831121019 72 259 7.0 10.0 0.00 0.00 0.00 72 1021.8
20260831120507 72 30 2.0 10.0 0.00 0.00 0.00 73 1022.0
20260831120014 72 292 5.0 9.0 0.00 0.00 0.00 71 1021.9
20260831115523 73 309 4.0 9.0 0.00 0.00 0.00 70 1021.9
20260831115011 73 309 2.0 8.0 0.00 0.00 0.00 68 1021.8
20260831114519 73 309 3.0 8.0 0.00 0.00 0.00 66 1021.8
20260831114007 74 284 4.0 8.0 0.00 0.00 0.00 64 1021.9
20260831113516 74 12 3.0 9.0 0.00 0.00 0.00 66 1021.8
20260831113022 74 311 2.0 9.0 0.00 0.00 0.00 67 1021.8
20260831112510 73 289 3.0 9.0 0.00 0.00 0.00 67 1021.9
20260831112019 73 316 4.0 8.0 0.00 0.00 0.00 64 1021.9
20260831111507 73 331 3.0 12.0 0.00 0.00 0.00 68 1021.9
20260831111014 73 321 4.0 12.0 0.00 0.00 0.00 67 1021.9
20260831110523 73 311 4.0 10.0 0.00 0.00 0.00 66 1021.8
20260831110011 72 303 5.0 10.0 0.00 0.04 0.00 69 1021.9
20260831105540 72 298 1.0 11.0 0.00 0.04 0.00 70 1021.9